This is the latest recevied weather packets stored in our database for station/object KI6SYE. If no packets are shown the sender has not sent any weather packets the latest 10 day(s).
| Time | Temp. | Humidity | Pressure | Rain* | Wind** | Luminosity | Snow |
|---|---|---|---|---|---|---|---|
| 1788477990 | 22.78° C | 77% | 1012 hPa | 0 mm | - | 354 W/m² | - |
| 1788477687 | 22.78° C | 76% | 1011.8 hPa | 0 mm | - | 371 W/m² | - |
| 1788477381 | 23.33° C | 75% | 1011.9 hPa | 0 mm | - | 386 W/m² | - |
| 1788477081 | 23.33° C | 75% | 1012.2 hPa | 0 mm | - | 401 W/m² | - |
| 1788476776 | 23.33° C | 74% | 1012.2 hPa | 0 mm | - | 417 W/m² | - |
| 1788476475 | 23.33° C | 74% | 1012 hPa | 0 mm | - | 429 W/m² | - |
| 1788476173 | 22.78° C | 75% | 1012.2 hPa | 0 mm | - | 300 W/m² | - |
| 1788475869 | 22.78° C | 76% | 1012.1 hPa | 0 mm | - | 458 W/m² | - |
| 1788475565 | 22.78° C | 76% | 1012.2 hPa | 0 mm | - | 68 W/m² | - |
| 1788475261 | 22.78° C | 77% | 1012.4 hPa | 0 mm | - | 59 W/m² | - |
| 1788474987 | 22.22° C | 77% | 1012.3 hPa | 0 mm | - | 55 W/m² | - |
| 1788474659 | 22.78° C | 77% | 1012.1 hPa | 0 mm | - | 55 W/m² | - |
| 1788474354 | 22.78° C | 76% | 1012.5 hPa | 0 mm | - | 56 W/m² | - |
| 1788474053 | 22.78° C | 76% | 1012.4 hPa | 0 mm | - | 56 W/m² | - |
| 1788473749 | 22.78° C | 78% | 1012.5 hPa | 0 mm | - | 64 W/m² | - |
| 1788473447 | 22.78° C | 77% | 1012.8 hPa | 0 mm | - | 90 W/m² | - |
| 1788473146 | 22.78° C | 77% | 1012.7 hPa | 0 mm | - | 570 W/m² | - |
| 1788472845 | 22.78° C | 77% | 1012.5 hPa | 0 mm | - | 580 W/m² | - |
| 1788472545 | 22.78° C | 77% | 1012.6 hPa | 0 mm | - | 592 W/m² | - |
| 1788472244 | 23.33° C | 77% | 1012.8 hPa | 0 mm | - | 603 W/m² | - |
| 1788471944 | 22.78° C | 76% | 1012.7 hPa | 0 mm | - | 614 W/m² | - |
| 1788471639 | 23.33° C | 76% | 1012.9 hPa | 0 mm | - | 623 W/m² | - |
| 1788471334 | 23.33° C | 76% | 1012.9 hPa | 0 mm | - | 632 W/m² | - |
| 1788471030 | 23.33° C | 76% | 1012.8 hPa | 0 mm | - | 641 W/m² | - |
| 1788470726 | 23.33° C | 76% | 1012.8 hPa | 0 mm | - | 648 W/m² | - |
* Rain latest hour (hover to see other rain measurements)
** Current wind speed in m/s (hover to see current wind gust speed)